Tracking 25693 objects as of 1-Jul-2022
HD Live streaming from Space Station
objects crossing your sky now

TEVEL-1

Track TEVEL-1 now!
10-day predictions
TEVEL-1 is classified as:


NORAD ID: 51013
Int'l Code: 2022-002AF
Perigee: 522.9 km
Apogee: 536.1 km
Inclination: 97.5 °
Period: 95.1 minutes
Semi major axis: 6900 km
RCS: Unknown
Launch date: January 13, 2022
Source: (TBD)
Launch site: AIR FORCE EASTERN TEST RANGE (AFETR)

Uplink (MHz): 145.970
Downlink (MHz): 436.400
Beacon (MHz):
Mode: 9600bps BPSK FM
Call sign: T1OFK
Status: Active

aabbcc
Your satellite tracking list
Your tracking list is empty




NASA's NSSDC Master Catalog

Two Line Element Set (TLE):
1 51013U 22002AF  22182.44893363  .00004885  00000-0  26822-3 0  9999
2 51013  97.4805 249.1804 0009592  26.6429 104.5819 15.14551774 25530
Source of the keplerian elements: AFSPC